FW6620 Weather Reports


time (UTC)temp
C
wind
direction
speed
KPH
gust
KPH
rain 1hr
cm
rain 24hr
cm
rain mn
cm
humidity
%
barometer
mb
20260901120056 25 0 0.0 0.0 0.00 0.00 0.00 88 1016.9
20260901115546 25 0 0.0 0.0 0.00 0.00 0.00 88 1017.0
20260901115049 25 0 0.0 0.0 0.00 0.00 0.00 88 1016.8
20260901114556 25 0 0.0 0.0 0.00 0.00 0.00 88 1016.8
20260901114046 25 0 0.0 0.0 0.00 0.00 0.00 88 1016.8
20260901113546 25 0 0.0 0.0 0.00 0.00 0.00 88 1016.8
20260901113051 25 0 0.0 0.0 0.00 0.00 0.00 87 1016.7
20260901112545 25 0 0.0 0.0 0.00 0.00 0.00 88 1016.7
20260901112046 25 0 0.0 0.0 0.00 0.00 0.00 87 1016.7
20260901111609 25 0 0.0 0.0 0.00 0.00 0.00 87 1016.6
20260901111047 25 0 0.0 0.0 0.00 0.00 0.00 87 1016.6
20260901110546 25 0 0.0 0.0 0.00 0.00 0.00 87 1016.6
20260901110058 26 0 0.0 0.0 0.00 0.00 0.00 87 1016.7
20260901105546 26 0 0.0 0.0 0.00 0.00 0.00 86 1016.5
20260901105046 26 0 0.0 0.0 0.00 0.00 0.00 86 1016.6
20260901104558 26 0 0.0 0.0 0.00 0.00 0.00 85 1016.5
20260901104046 26 0 0.0 1.6 0.00 0.00 0.00 85 1016.5
20260901103544 26 0 0.0 1.6 0.00 0.00 0.00 85 1016.5
20260901103057 26 0 0.0 1.6 0.00 0.00 0.00 85 1016.5
20260901102546 26 0 0.0 0.0 0.00 0.00 0.00 84 1016.4
20260901102046 26 0 0.0 3.2 0.00 0.00 0.00 85 1016.4
20260901101559 26 0 0.0 3.2 0.00 0.00 0.00 84 1016.5
20260901101046 26 0 0.0 3.2 0.00 0.00 0.00 84 1016.4
20260901100547 26 0 0.0 0.0 0.00 0.00 0.00 84 1016.4
20260901100100 26 0 0.0 0.0 0.00 0.00 0.00 84 1016.5
20260901095548 26 0 0.0 0.0 0.00 0.00 0.00 84 1016.6
20260901095047 26 0 0.0 0.0 0.00 0.00 0.00 84 1016.6
20260901094559 27 0 0.0 0.0 0.00 0.00 0.00 84 1016.6
20260901094046 27 0 0.0 3.2 0.00 0.00 0.00 84 1016.7
20260901093547 27 0 0.0 3.2 0.00 0.00 0.00 84 1016.7
20260901093058 27 0 0.0 3.2 0.00 0.00 0.00 84 1016.7
20260901092548 27 0 0.0 3.2 0.00 0.00 0.00 84 1016.8
20260901092048 27 0 0.0 3.2 0.00 0.00 0.00 84 1016.8
20260901091604 27 0 0.0 3.2 0.00 0.00 0.00 84 1016.8
20260901091047 27 66 0.0 3.2 0.00 0.00 0.00 83 1016.9
20260901090544 27 0 0.0 0.0 0.00 0.00 0.00 83 1016.9
20260901090100 27 0 0.0 3.2 0.00 0.00 0.00 83 1016.7
20260901085547 27 0 0.0 3.2 0.00 0.00 0.00 82 1016.7
20260901085047 27 0 0.0 0.0 0.00 0.00 0.00 82 1016.6
20260901084557 27 0 0.0 1.6 0.00 0.00 0.00 82 1016.6
20260901084047 27 0 0.0 1.6 0.00 0.00 0.00 81 1016.5
20260901083547 27 0 0.0 3.2 0.00 0.00 0.00 81 1016.5
20260901083059 27 0 0.0 3.2 0.00 0.00 0.00 81 1016.6
20260901082547 27 0 0.0 3.2 0.00 0.00 0.00 80 1016.6
20260901082048 27 0 0.0 1.6 0.00 0.00 0.00 80 1016.5
20260901081556 27 0 0.0 1.6 0.00 0.00 0.00 80 1016.5
20260901081047 27 0 0.0 0.0 0.00 0.00 0.00 79 1016.5
20260901080547 27 0 0.0 0.0 0.00 0.00 0.00 79 1016.6
20260901080112 27 0 0.0 3.2 0.00 0.00 0.00 78 1016.6
20260901075546 27 0 0.0 3.2 0.00 0.00 0.00 79 1016.6
20260901075048 27 0 0.0 3.2 0.00 0.00 0.00 78 1016.7
20260901074554 27 0 0.0 3.2 0.00 0.00 0.00 78 1016.7
20260901074047 28 0 0.0 4.8 0.00 0.00 0.00 78 1016.6
20260901073547 28 0 0.0 4.8 0.00 0.00 0.00 77 1016.7
20260901073102 28 0 0.0 4.8 0.00 0.00 0.00 77 1016.6
20260901072550 28 0 0.0 4.8 0.00 0.00 0.00 76 1016.6
20260901072051 28 0 0.0 4.8 0.00 0.00 0.00 76 1016.6
20260901071603 28 0 0.0 4.8 0.00 0.00 0.00 76 1016.6
20260901071047 28 0 0.0 4.8 0.00 0.00 0.00 75 1016.6
20260901070548 28 0 0.0 4.8 0.00 0.00 0.00 75 1016.6
20260901070103 28 0 0.0 4.8 0.00 0.00 0.00 75 1016.6
20260901065549 28 0 0.0 4.8 0.00 0.00 0.00 75 1016.5
20260901065047 28 0 0.0 4.8 0.00 0.00 0.00 74 1016.5
20260901064608 28 65 0.0 6.4 0.00 0.00 0.00 74 1016.5
20260901064047 28 0 0.0 6.4 0.00 0.00 0.00 74 1016.5
20260901063547 28 0 0.0 4.8 0.00 0.00 0.00 73 1016.6
20260901063123 28 67 0.0 4.8 0.00 0.00 0.00 73 1016.5
20260901062548 28 0 1.6 9.7 0.00 0.00 0.00 72 1016.5
20260901062047 28 0 1.6 9.7 0.00 0.00 0.00 72 1016.4
20260901061602 28 0 0.0 9.7 0.00 0.00 0.00 71 1016.3
20260901061047 29 0 0.0 9.7 0.00 0.00 0.00 71 1016.3
20260901060552 29 0 0.0 9.7 0.00 0.00 0.00 71 1016.2
20260901060058 29 0 1.6 9.7 0.00 0.00 0.00 70 1016.3
20260901055547 29 0 0.0 6.4 0.00 0.00 0.00 70 1016.3
20260901055047 29 60 1.6 6.4 0.00 0.00 0.00 70 1016.3
20260901054553 29 0 0.0 9.7 0.00 0.00 0.00 70 1016.1
20260901054047 29 60 0.0 9.7 0.00 0.00 0.00 70 1016.2
20260901053549 29 58 1.6 9.7 0.00 0.00 0.00 70 1016.1
20260901053114 30 58 1.6 6.4 0.00 0.00 0.00 70 1016.1
20260901052548 30 0 1.6 6.4 0.00 0.00 0.00 69 1016.2
20260901052048 30 70 0.0 6.4 0.00 0.00 0.00 69 1016.2
20260901051559 30 0 0.0 9.7 0.00 0.00 0.00 69 1016.1
20260901051048 30 60 0.0 9.7 0.00 0.00 0.00 68 1016.0
20260901050547 30 0 0.0 6.4 0.00 0.00 0.00 68 1016.0
20260901045547 30 0 0.0 6.4 0.00 0.00 0.00 67 1016.0
20260901045051 30 0 0.0 6.4 0.00 0.00 0.00 67 1016.0
20260901044559 30 67 1.6 6.4 0.00 0.00 0.00 66 1015.9
20260901044047 30 0 0.0 16.1 0.00 0.00 0.00 66 1015.8
20260901043548 30 57 3.2 16.1 0.00 0.00 0.00 66 1015.8
20260901043059 30 61 0.0 4.8 0.00 0.00 0.00 65 1015.8
20260901042547 31 0 0.0 6.4 0.00 0.00 0.00 65 1015.9
20260901042049 31 0 0.0 6.4 0.00 0.00 0.00 65 1015.8
20260901041559 31 53 0.0 11.3 0.00 0.00 0.00 64 1015.8
20260901041047 31 0 0.0 11.3 0.00 0.00 0.00 64 1015.9
20260901040547 31 72 1.6 14.5 0.00 0.00 0.00 64 1015.7
20260901040104 31 0 1.6 14.5 0.00 0.00 0.00 63 1015.7
20260901035546 31 64 1.6 9.7 0.00 0.00 0.00 63 1015.8
20260901035048 31 56 1.6 8.0 0.00 0.00 0.00 62 1015.7
20260901034559 31 0 0.0 4.8 0.00 0.00 0.00 62 1015.7
20260901034045 31 91 0.0 6.4 0.00 0.00 0.00 61 1015.6
20260901033545 31 0 1.6 11.3 0.00 0.00 0.00 60 1015.6
20260901033055 31 0 1.6 11.3 0.00 0.00 0.00 60 1015.6
20260901032546 31 64 1.6 14.5 0.00 0.00 0.00 58 1015.5
20260901032045 31 64 1.6 14.5 0.00 0.00 0.00 58 1015.6
20260901031556 31 76 0.0 8.0 0.00 0.00 0.00 56 1015.5
20260901031045 32 0 0.0 6.4 0.00 0.00 0.00 56 1015.5
20260901030545 32 63 1.6 6.4 0.00 0.00 0.00 55 1015.3
20260901030100 32 184 1.6 4.8 0.00 0.00 0.00 55 1015.4
20260901025545 32 66 0.0 9.7 0.00 0.00 0.00 53 1015.2
20260901025045 32 0 0.0 9.7 0.00 0.00 0.00 53 1015.1
20260901024603 32 155 1.6 6.4 0.00 0.00 0.00 52 1015.0
20260901024045 32 87 0.0 4.8 0.00 0.00 0.00 51 1014.9
20260901023545 32 71 0.0 4.8 0.00 0.00 0.00 49 1014.9
20260901023106 32 70 0.0 4.8 0.00 0.00 0.00 49 1014.7
20260901022544 32 0 0.0 0.0 0.00 0.00 0.00 49 1014.6
20260901022045 32 0 0.0 1.6 0.00 0.00 0.00 49 1014.4
20260901021558 32 0 0.0 3.2 0.00 0.00 0.00 49 1014.4
20260901021049 32 0 0.0 3.2 0.00 0.00 0.00 49 1014.3
20260901020545 32 0 0.0 3.2 0.00 0.00 0.00 49 1014.2
20260901020059 32 75 0.0 1.6 0.00 0.00 0.00 48 1014.2
20260901015544 32 0 0.0 1.6 0.00 0.00 0.00 48 1014.1
20260901015045 32 0 0.0 0.0 0.00 0.00 0.00 48 1014.1
20260901014600 33 0 0.0 0.0 0.00 0.00 0.00 50 1013.9
20260901014049 33 0 0.0 0.0 0.00 0.00 0.00 49 1014.0
20260901013545 33 0 0.0 0.0 0.00 0.00 0.00 49 1013.9
20260901013108 33 0 0.0 0.0 0.00 0.00 0.00 51 1013.9
20260901012544 33 0 0.0 0.0 0.00 0.00 0.00 48 1013.8
20260901012045 33 0 0.0 0.0 0.00 0.00 0.00 48 1013.9
20260901011604 33 0 0.0 0.0 0.00 0.00 0.00 46 1013.7
20260901011046 33 0 0.0 0.0 0.00 0.00 0.00 47 1013.7
20260901010545 33 0 0.0 1.6 0.00 0.00 0.00 46 1013.7
20260901010058 34 0 0.0 1.6 0.00 0.00 0.00 45 1013.6
20260901005547 34 0 0.0 3.2 0.00 0.00 0.00 44 1013.6
20260901005045 34 0 0.0 3.2 0.00 0.00 0.00 45 1013.5
20260901004603 34 0 0.0 3.2 0.00 0.00 0.00 44 1013.5
20260901004044 34 0 0.0 1.6 0.00 0.00 0.00 45 1013.6
20260901003544 34 0 0.0 3.2 0.00 0.00 0.00 44 1013.6
20260901003108 34 76 0.0 3.2 0.00 0.00 0.00 44 1013.6
20260901002544 35 0 0.0 3.2 0.00 0.00 0.00 44 1013.6
20260901002045 35 76 0.0 4.8 0.00 0.00 0.00 44 1013.6
20260901001556 35 0 0.0 4.8 0.00 0.00 0.00 44 1013.6
20260901001047 35 0 0.0 4.8 0.00 0.00 0.00 43 1013.5
20260901000546 35 76 0.0 3.2 0.00 0.00 0.00 43 1013.5
20260901000055 35 0 0.0 1.6 0.00 0.00 0.00 44 1013.5
20260831235543 35 0 0.0 3.2 0.00 0.00 0.00 45 1013.5
20260831235049 35 0 0.0 4.8 0.00 0.00 0.00 44 1013.4
20260831234600 35 76 0.0 4.8 0.00 0.00 0.00 44 1013.4
20260831234046 35 0 0.0 4.8 0.00 0.00 0.00 44 1013.5
20260831233545 35 0 0.0 3.2 0.00 0.00 0.00 45 1013.4
20260831233058 35 0 0.0 3.2 0.00 0.00 0.00 44 1013.5
20260831232544 35 0 0.0 3.2 0.00 0.00 0.00 44 1013.4
20260831232044 35 0 0.0 3.2 0.00 0.00 0.00 44 1013.5
20260831231611 35 74 0.0 3.2 0.00 0.00 0.00 45 1013.5
20260831231045 36 74 0.0 4.8 0.00 0.00 0.00 46 1013.5
20260831230545 36 0 0.0 4.8 0.00 0.00 0.00 43 1013.5
20260831230054 36 0 0.0 6.4 0.00 0.00 0.00 43 1013.6
20260831225544 36 0 0.0 11.3 0.00 0.00 0.00 44 1013.6
20260831225045 36 56 1.6 11.3 0.00 0.00 0.00 44 1013.5
20260831224600 36 0 1.6 4.8 0.00 0.00 0.00 44 1013.5
20260831224045 36 0 0.0 4.8 0.00 0.00 0.00 45 1013.6
20260831223545 36 63 0.0 6.4 0.00 0.00 0.00 43 1013.6
20260831223108 36 62 0.0 6.4 0.00 0.00 0.00 44 1013.8
20260831222545 36 62 1.6 11.3 0.00 0.00 0.00 45 1013.8
20260831222044 36 0 1.6 11.3 0.00 0.00 0.00 44 1013.9
20260831221603 36 60 1.6 6.4 0.00 0.00 0.00 44 1013.8
20260831221045 36 0 0.0 4.8 0.00 0.00 0.00 45 1013.8
20260831220545 36 0 0.0 4.8 0.00 0.00 0.00 46 1013.8
20260831220055 36 0 0.0 4.8 0.00 0.00 0.00 47 1013.7
20260831215545 36 0 0.0 1.6 0.00 0.00 0.00 45 1013.8
20260831215047 36 0 0.0 6.4 0.00 0.00 0.00 46 1013.9
20260831214559 36 0 0.0 6.4 0.00 0.00 0.00 45 1014.0
20260831214045 36 61 0.0 4.8 0.00 0.00 0.00 44 1014.1
20260831213544 37 61 1.6 4.8 0.00 0.00 0.00 45 1014.2
20260831213100 37 0 1.6 6.4 0.00 0.00 0.00 45 1014.2
20260831212545 37 0 0.0 6.4 0.00 0.00 0.00 46 1014.2
20260831212045 36 60 0.0 6.4 0.00 0.00 0.00 45 1014.3
20260831211604 36 0 0.0 6.4 0.00 0.00 0.00 46 1014.3
20260831211045 36 63 1.6 9.7 0.00 0.00 0.00 43 1014.4
20260831210544 36 0 1.6 11.3 0.00 0.00 0.00 44 1014.5
20260831210100 36 0 1.6 11.3 0.00 0.00 0.00 44 1014.6
20260831205545 36 56 1.6 11.3 0.00 0.00 0.00 46 1014.7
20260831205045 36 64 0.0 6.4 0.00 0.00 0.00 46 1014.7
20260831204557 36 0 0.0 3.2 0.00 0.00 0.00 46 1014.8
20260831204045 36 0 0.0 11.3 0.00 0.00 0.00 48 1015.0
20260831203544 36 74 1.6 11.3 0.00 0.00 0.00 47 1015.1
20260831203057 36 51 1.6 9.7 0.00 0.00 0.00 47 1015.2
20260831202544 36 0 0.0 11.3 0.00 0.00 0.00 48 1015.3
20260831202046 36 55 1.6 11.3 0.00 0.00 0.00 50 1015.4
20260831201601 36 78 0.0 3.2 0.00 0.00 0.00 48 1015.4
20260831201045 36 78 0.0 6.4 0.00 0.00 0.00 48 1015.6
20260831200545 35 0 0.0 6.4 0.00 0.00 0.00 49 1015.7
20260831200058 35 73 0.0 3.2 0.00 0.00 0.00 49 1015.6
20260831195548 35 74 0.0 9.7 0.00 0.00 0.00 48 1015.7
20260831195045 35 73 1.6 11.3 0.00 0.00 0.00 50 1015.9
20260831194641 35 53 3.2 11.3 0.00 0.00 0.00 49 1016.0
20260831194045 35 56 1.6 6.4 0.00 0.00 0.00 49 1016.0
20260831193545 35 0 0.0 4.8 0.00 0.00 0.00 50 1016.0
20260831193059 35 0 0.0 4.8 0.00 0.00 0.00 51 1016.1
20260831192545 35 67 1.6 11.3 0.00 0.00 0.00 52 1016.2
20260831192045 35 0 0.0 11.3 0.00 0.00 0.00 49 1016.2
20260831191556 35 64 1.6 11.3 0.00 0.00 0.00 51 1016.4
20260831191044 35 66 0.0 6.4 0.00 0.00 0.00 53 1016.4
20260831190548 35 66 1.6 6.4 0.00 0.00 0.00 52 1016.4
20260831185545 35 0 1.6 9.7 0.00 0.00 0.00 53 1016.6
20260831185044 35 56 1.6 12.9 0.00 0.00 0.00 53 1016.7
20260831184557 35 0 3.2 12.9 0.00 0.00 0.00 54 1016.8
20260831184045 35 55 3.2 12.9 0.00 0.00 0.00 54 1016.9
20260831183548 35 62 0.0 6.4 0.00 0.00 0.00 57 1016.9
20260831183058 34 0 0.0 9.7 0.00 0.00 0.00 55 1016.9
20260831182546 34 62 1.6 11.3 0.00 0.00 0.00 56 1016.9
20260831182047 34 64 1.6 11.3 0.00 0.00 0.00 54 1016.9
20260831181556 34 73 0.0 4.8 0.00 0.00 0.00 57 1016.9
20260831181050 34 63 0.0 4.8 0.00 0.00 0.00 57 1017.0
20260831180546 34 61 0.0 6.4 0.00 0.00 0.00 57 1017.1
20260831180056 33 70 0.0 6.4 0.00 0.00 0.00 60 1017.3
20260831175547 33 187 1.6 6.4 0.00 0.00 0.00 60 1017.3
20260831175048 33 62 0.0 6.4 0.00 0.00 0.00 59 1017.4
20260831174601 33 62 1.6 11.3 0.00 0.00 0.00 62 1017.5
20260831174050 33 0 1.6 11.3 0.00 0.00 0.00 60 1017.5
20260831173546 33 66 0.0 11.3 0.00 0.00 0.00 63 1017.5
20260831173057 33 56 3.2 11.3 0.00 0.00 0.00 61 1017.7
20260831172546 33 61 1.6 6.4 0.00 0.00 0.00 63 1017.7
20260831172046 32 61 0.0 11.3 0.00 0.00 0.00 65 1017.8
20260831171559 32 62 0.0 11.3 0.00 0.00 0.00 63 1017.8
20260831171047 32 61 1.6 11.3 0.00 0.00 0.00 64 1017.8
20260831170546 32 66 0.0 4.8 0.00 0.00 0.00 63 1017.7
20260831170052 32 0 0.0 4.8 0.00 0.00 0.00 66 1017.8
20260831165549 32 0 0.0 9.7 0.00 0.00 0.00 67 1017.9
20260831165046 32 66 0.0 9.7 0.00 0.00 0.00 67 1018.0
20260831164600 32 0 1.6 9.7 0.00 0.00 0.00 67 1017.9
20260831164046 31 58 1.6 9.7 0.00 0.00 0.00 69 1017.9
20260831163546 31 58 0.0 4.8 0.00 0.00 0.00 71 1017.9
20260831163057 31 0 1.6 9.7 0.00 0.00 0.00 71 1018.0
20260831162547 30 0 0.0 9.7 0.00 0.00 0.00 71 1017.9
20260831162050 30 0 1.6 9.7 0.00 0.00 0.00 72 1018.0
20260831161605 30 66 0.0 4.8 0.00 0.00 0.00 73 1018.0
20260831161047 30 0 0.0 6.4 0.00 0.00 0.00 73 1017.9
20260831160546 30 0 0.0 6.4 0.00 0.00 0.00 72 1018.0
20260831160051 30 67 1.6 6.4 0.00 0.00 0.00 72 1017.9
20260831155547 30 67 0.0 6.4 0.00 0.00 0.00 74 1017.9
20260831155047 30 68 0.0 4.8 0.00 0.00 0.00 75 1017.8
20260831154629 30 0 1.6 4.8 0.00 0.00 0.00 75 1017.8
20260831154047 29 68 1.6 4.8 0.00 0.00 0.00 76 1017.9
20260831153546 29 58 0.0 9.7 0.00 0.00 0.00 77 1017.9
20260831153116 28 58 1.6 9.7 0.00 0.00 0.00 78 1017.8
20260831152547 28 0 0.0 6.4 0.00 0.00 0.00 78 1017.8
20260831152046 28 55 1.6 9.7 0.00 0.00 0.00 78 1017.8
20260831151601 28 0 1.6 9.7 0.00 0.00 0.00 79 1017.8
20260831151046 28 53 3.2 14.5 0.00 0.00 0.00 77 1017.7
20260831150547 28 62 3.2 14.5 0.00 0.00 0.00 78 1017.7
20260831145549 28 0 1.6 6.4 0.00 0.00 0.00 81 1017.8
20260831145046 28 60 0.0 6.4 0.00 0.00 0.00 82 1017.6
20260831144644 28 60 0.0 6.4 0.00 0.00 0.00 83 1017.6
20260831144046 28 60 1.6 6.4 0.00 0.00 0.00 84 1017.5
20260831143550 27 0 0.0 6.4 0.00 0.00 0.00 85 1017.6
20260831143100 27 57 0.0 6.4 0.00 0.00 0.00 86 1017.5
20260831142549 27 0 1.6 6.4 0.00 0.00 0.00 87 1017.4
20260831142046 27 0 0.0 4.8 0.00 0.00 0.00 87 1017.5
20260831141557 27 0 0.0 9.7 0.00 0.00 0.00 87 1017.5
20260831141043 27 0 0.0 9.7 0.00 0.00 0.00 88 1017.4
20260831140546 27 0 0.0 4.8 0.00 0.00 0.00 89 1017.4
20260831140052 26 0 1.6 4.8 0.00 0.00 0.00 89 1017.3
20260831135547 26 0 0.0 4.8 0.00 0.00 0.00 91 1017.2
20260831135047 26 0 0.0 4.8 0.00 0.00 0.00 90 1017.3
20260831134601 26 0 0.0 1.6 0.00 0.00 0.00 91 1017.3
20260831134047 26 0 0.0 1.6 0.00 0.00 0.00 92 1017.2
20260831133546 26 0 0.0 3.2 0.00 0.00 0.00 92 1017.2
20260831133103 26 0 0.0 4.8 0.00 0.00 0.00 92 1017.1
20260831132546 26 0 0.0 4.8 0.00 0.00 0.00 92 1017.1
20260831132046 26 0 0.0 4.8 0.00 0.00 0.00 92 1017.1
20260831131604 25 58 0.0 4.8 0.00 0.00 0.00 92 1016.9
20260831131046 25 0 0.0 4.8 0.00 0.00 0.00 92 1017.0
20260831130545 25 58 0.0 3.2 0.00 0.00 0.00 93 1016.9
20260831130109 25 0 0.0 0.0 0.00 0.00 0.00 92 1016.8
20260831125546 25 0 0.0 0.0 0.00 0.00 0.00 91 1016.8
20260831125046 25 0 0.0 0.0 0.00 0.00 0.00 92 1016.6
20260831124603 25 0 0.0 0.0 0.00 0.00 0.00 92 1016.6
20260831124046 25 0 0.0 0.0 0.00 0.00 0.00 92 1016.6
20260831123546 25 0 0.0 0.0 0.00 0.00 0.00 92 1016.6
20260831123100 25 0 0.0 0.0 0.00 0.00 0.00 92 1016.5
20260831122546 25 0 0.0 0.0 0.00 0.00 0.00 91 1016.4
20260831122046 25 0 0.0 0.0 0.00 0.00 0.00 91 1016.6
20260831121558 25 0 0.0 0.0 0.00 0.00 0.00 91 1016.6
20260831121044 26 0 0.0 0.0 0.00 0.00 0.00 91 1016.5
20260831120547 26 0 0.0 0.0 0.00 0.00 0.00 91 1016.5